Back to catalog

COSMOS 2251 DEB

AliveLEO
NORAD 34553·DEBRIS·🇷🇺 Russia

Launched Jun 16, 1993 from Plesetsk Cosmodrome

Loading…

Next Passes (next 24 hours)

TLE

FreshSource: Space-Track

Epoch: Sep 14, 2026, 11:49 UTC

1 34553U 93036UP  26257.49299326  .00003195  00000-0  66756-3 0  9998
2 34553  74.0264  26.0439 0018792  35.8455  83.1996 14.60169956921180

Track COSMOS 2251 DEB in real time with AllMySat

Download on the App Store